Wetterdaten: Woche 18.12.17 - 24.12.17 (KW51)
Datum Zeit Temp. I. Temp. A. Feuchte I. Feuchte A. Luftdruck Regen Wind Richtung Sonnenschein UV Solar Taupunkt Windchill Windben
18.12.2017 00:00 22,7 C -1,2 C 56 % 95 % 1024,7 hPa 0,4 l/m 0,3 km/h (0 Bft) N-NW 0,00 h 0,0 UV-I 0 W/m -1,9 C -1,2 C 1,1 km/h (1 Bft)
18.12.2017 01:00 22,5 C -0,8 C 56 % 96 % 1024,5 hPa 0,2 l/m 0,9 km/h (0 Bft) W-SW 0,00 h 0,0 UV-I 0 W/m -1,4 C -0,8 C 2,4 km/h (1 Bft)
18.12.2017 02:00 22,4 C -0,6 C 57 % 96 % 1024,3 hPa 0,0 l/m 4,1 km/h (1 Bft) W-SW 0,00 h 0,0 UV-I 0 W/m -1,2 C -0,6 C 7,2 km/h (2 Bft)
18.12.2017 03:00 22,3 C -0,8 C 58 % 95 % 1023,9 hPa 0,0 l/m 1,9 km/h (1 Bft) S 0,00 h 0,0 UV-I 0 W/m -1,5 C -0,8 C 3,7 km/h (1 Bft)
18.12.2017 04:00 22,3 C -1,2 C 58 % 95 % 1023,5 hPa 0,0 l/m 0,8 km/h (0 Bft) S-SW 0,00 h 0,0 UV-I 0 W/m -1,9 C -1,2 C 1,6 km/h (1 Bft)
18.12.2017 05:00 22,3 C -1,5 C 59 % 95 % 1023,4 hPa 0,0 l/m 2,2 km/h (1 Bft) S 0,00 h 0,0 UV-I 0 W/m -2,2 C -1,5 C 3,9 km/h (1 Bft)
18.12.2017 06:00 22,2 C -1,3 C 59 % 95 % 1023,2 hPa 0,0 l/m 3,4 km/h (1 Bft) S-SO 0,00 h 0,0 UV-I 0 W/m -2,0 C -1,3 C 5,3 km/h (1 Bft)
18.12.2017 07:00 22,4 C -1,2 C 58 % 95 % 1023,3 hPa 0,0 l/m 1,4 km/h (1 Bft) S-SO 0,00 h 0,0 UV-I 0 W/m -1,9 C -1,2 C 2,8 km/h (1 Bft)
18.12.2017 08:00 22,5 C -1,2 C 58 % 95 % 1023,6 hPa 0,0 l/m 0,3 km/h (0 Bft) S-SO 0,00 h 0,0 UV-I 8 W/m -1,8 C -1,2 C 1,0 km/h (0 Bft)
18.12.2017 09:00 22,6 C -0,8 C 58 % 94 % 1024,1 hPa 0,0 l/m 0,0 km/h (0 Bft) N 0,00 h 0,0 UV-I 18 W/m -1,6 C -0,8 C 0,0 km/h (0 Bft)
18.12.2017 10:00 22,6 C -0,2 C 57 % 93 % 1024,4 hPa 0,0 l/m 0,1 km/h (0 Bft) O-SO 0,00 h 0,0 UV-I 33 W/m -1,3 C -0,2 C 0,2 km/h (0 Bft)
18.12.2017 11:00 22,9 C 0,3 C 57 % 89 % 1024,3 hPa 0,0 l/m 1,5 km/h (1 Bft) O-SO 0,00 h 0,6 UV-I 64 W/m -1,3 C 0,3 C 3,7 km/h (1 Bft)
18.12.2017 12:00 23,1 C 0,3 C 57 % 88 % 1024,9 hPa 0,0 l/m 1,2 km/h (1 Bft) O-SO 0,00 h 0,6 UV-I 59 W/m -1,5 C 0,3 C 2,7 km/h (1 Bft)
18.12.2017 13:00 23,0 C 0,6 C 56 % 86 % 1025,2 hPa 0,0 l/m 0,5 km/h (0 Bft) O-SO 0,00 h 0,5 UV-I 79 W/m -1,4 C 0,6 C 1,1 km/h (1 Bft)
18.12.2017 14:00 23,1 C 0,3 C 56 % 86 % 1025,3 hPa 0,0 l/m 2,3 km/h (1 Bft) O 0,07 h 0,5 UV-I 81 W/m -1,8 C 0,2 C 5,1 km/h (1 Bft)
18.12.2017 15:00 23,0 C -0,5 C 56 % 84 % 1025,8 hPa 0,0 l/m 2,4 km/h (1 Bft) O 0,00 h 0,0 UV-I 22 W/m -2,8 C -0,5 C 5,3 km/h (1 Bft)
18.12.2017 16:00 22,9 C -1,6 C 58 % 86 % 1026,5 hPa 0,0 l/m 1,5 km/h (1 Bft) O 0,00 h 0,0 UV-I 5 W/m -3,6 C -1,6 C 2,8 km/h (1 Bft)
18.12.2017 17:00 22,8 C -2,7 C 61 % 88 % 1027,2 hPa 0,0 l/m 1,3 km/h (1 Bft) O-NO 0,00 h 0,0 UV-I 0 W/m -4,4 C -2,7 C 2,5 km/h (1 Bft)
18.12.2017 18:00 22,8 C -3,9 C 62 % 89 % 1027,8 hPa 0,0 l/m 0,7 km/h (0 Bft) O-NO 0,00 h 0,0 UV-I 0 W/m -5,3 C -3,9 C 1,9 km/h (1 Bft)
18.12.2017 19:00 22,7 C -5,3 C 63 % 90 % 1028,4 hPa 0,0 l/m 0,6 km/h (0 Bft) O-NO 0,00 h 0,0 UV-I 0 W/m -6,7 C -5,3 C 1,3 km/h (1 Bft)
18.12.2017 20:00 22,7 C -6,0 C 62 % 91 % 1029,4 hPa 0,0 l/m 0,6 km/h (0 Bft) NO 0,00 h 0,0 UV-I 0 W/m -7,2 C -6,0 C 1,1 km/h (1 Bft)
18.12.2017 21:00 22,7 C -6,7 C 62 % 92 % 1029,9 hPa 0,0 l/m 0,4 km/h (0 Bft) O-NO 0,00 h 0,0 UV-I 0 W/m -7,8 C -6,7 C 0,9 km/h (0 Bft)
18.12.2017 22:00 22,7 C -6,6 C 63 % 93 % 1030,3 hPa 0,0 l/m 0,5 km/h (0 Bft) O-NO 0,00 h 0,0 UV-I 0 W/m -7,5 C -6,6 C 1,5 km/h (1 Bft)
18.12.2017 23:00 22,7 C -6,2 C 63 % 93 % 1030,5 hPa 0,0 l/m 0,0 km/h (0 Bft) N 0,00 h 0,0 UV-I 0 W/m -7,1 C -6,2 C 0,0 km/h (0 Bft)
19.12.2017 00:00 22,7 C -6,6 C 63 % 93 % 1030,8 hPa 0,0 l/m 0,3 km/h (0 Bft) O-NO 0,00 h 0,0 UV-I 0 W/m -7,5 C -6,6 C 0,7 km/h (0 Bft)
19.12.2017 01:00 22,5 C -7,2 C 63 % 93 % 1031,4 hPa 0,0 l/m 0,3 km/h (0 Bft) O-NO 0,00 h 0,0 UV-I 0 W/m -8,1 C -7,2 C 0,8 km/h (0 Bft)
19.12.2017 02:00 22,3 C -7,7 C 63 % 93 % 1031,6 hPa 0,0 l/m 0,2 km/h (0 Bft) O-NO 0,00 h 0,0 UV-I 0 W/m -8,6 C -7,7 C 0,7 km/h (0 Bft)
19.12.2017 03:00 22,1 C -7,6 C 64 % 93 % 1031,9 hPa 0,0 l/m 0,0 km/h (0 Bft) N 0,00 h 0,0 UV-I 0 W/m -8,5 C -7,6 C 0,1 km/h (0 Bft)
19.12.2017 04:00 22,0 C -7,7 C 64 % 93 % 1032,4 hPa 0,0 l/m 0,4 km/h (0 Bft) O-NO 0,00 h 0,0 UV-I 0 W/m -8,6 C -7,7 C 0,9 km/h (0 Bft)
19.12.2017 05:00 22,0 C -8,1 C 64 % 93 % 1032,6 hPa 0,0 l/m 0,2 km/h (0 Bft) O 0,00 h 0,0 UV-I 0 W/m -9,0 C -8,1 C 0,5 km/h (0 Bft)
19.12.2017 06:00 22,2 C -8,0 C 64 % 93 % 1033,3 hPa 0,0 l/m 0,0 km/h (0 Bft) N 0,00 h 0,0 UV-I 0 W/m -8,9 C -8,0 C 0,0 km/h (0 Bft)
19.12.2017 07:00 22,3 C -6,6 C 64 % 94 % 1033,7 hPa 0,0 l/m 0,0 km/h (0 Bft) N 0,00 h 0,0 UV-I 0 W/m -7,4 C -6,6 C 0,0 km/h (0 Bft)
19.12.2017 08:00 22,4 C -5,8 C 64 % 94 % 1033,7 hPa 0,0 l/m 0,0 km/h (0 Bft) N 0,00 h 0,0 UV-I 14 W/m -6,5 C -5,8 C 0,0 km/h (0 Bft)
19.12.2017 09:00 22,4 C -4,5 C 63 % 95 % 1034,3 hPa 0,0 l/m 0,0 km/h (0 Bft) N 0,00 h 0,0 UV-I 39 W/m -5,2 C -4,5 C 0,0 km/h (0 Bft)
19.12.2017 10:00 22,6 C -3,5 C 62 % 95 % 1034,6 hPa 0,0 l/m 0,0 km/h (0 Bft) N 0,00 h 0,5 UV-I 64 W/m -4,2 C -3,5 C 0,0 km/h (0 Bft)
19.12.2017 11:00 22,7 C -2,2 C 62 % 95 % 1034,8 hPa 0,0 l/m 0,1 km/h (0 Bft) S 0,00 h 0,6 UV-I 78 W/m -3,0 C -2,2 C 0,1 km/h (0 Bft)
19.12.2017 12:00 22,8 C -1,4 C 62 % 93 % 1034,3 hPa 0,0 l/m 0,0 km/h (0 Bft) N 0,00 h 0,6 UV-I 74 W/m -2,3 C -1,4 C 0,0 km/h (0 Bft)
19.12.2017 13:00 23,1 C -1,1 C 63 % 93 % 1034,3 hPa 0,0 l/m 0,0 km/h (0 Bft) N 0,00 h 0,5 UV-I 55 W/m -2,1 C -1,1 C 0,0 km/h (0 Bft)
19.12.2017 14:00 23,1 C -0,9 C 62 % 92 % 1033,9 hPa 0,0 l/m 0,0 km/h (0 Bft) N 0,00 h 0,0 UV-I 28 W/m -2,0 C -0,9 C 0,0 km/h (0 Bft)
19.12.2017 15:00 22,9 C -0,8 C 62 % 92 % 1033,8 hPa 0,0 l/m 3,6 km/h (1 Bft) SW 0,00 h 0,0 UV-I 13 W/m -1,9 C -0,9 C 6,9 km/h (2 Bft)
19.12.2017 16:00 22,7 C -0,9 C 61 % 93 % 1034,0 hPa 0,0 l/m 3,8 km/h (1 Bft) S 0,00 h 0,0 UV-I 0 W/m -1,9 C -1,0 C 6,2 km/h (2 Bft)
19.12.2017 17:00 22,7 C -1,0 C 62 % 94 % 1034,1 hPa 0,0 l/m 2,2 km/h (1 Bft) S 0,00 h 0,0 UV-I 0 W/m -1,8 C -1,0 C 3,9 km/h (1 Bft)
19.12.2017 18:00 23,0 C -0,8 C 63 % 95 % 1034,0 hPa 0,0 l/m 2,8 km/h (1 Bft) SW 0,00 h 0,0 UV-I 0 W/m -1,5 C -0,8 C 5,6 km/h (1 Bft)
19.12.2017 19:00 23,1 C -0,6 C 63 % 95 % 1033,9 hPa 0,0 l/m 2,4 km/h (1 Bft) S 0,00 h 0,0 UV-I 0 W/m -1,3 C -0,6 C 4,7 km/h (1 Bft)
19.12.2017 20:00 23,1 C -0,5 C 62 % 95 % 1033,8 hPa 0,2 l/m 3,3 km/h (1 Bft) SW 0,00 h 0,0 UV-I 0 W/m -1,2 C -0,5 C 6,2 km/h (2 Bft)
19.12.2017 21:00 23,1 C -0,3 C 62 % 96 % 1033,7 hPa 0,0 l/m 2,3 km/h (1 Bft) S 0,00 h 0,0 UV-I 0 W/m -0,9 C -0,3 C 4,3 km/h (1 Bft)
19.12.2017 22:00 23,1 C -0,3 C 61 % 96 % 1033,8 hPa 0,0 l/m 2,9 km/h (1 Bft) S 0,00 h 0,0 UV-I 0 W/m -0,8 C -0,3 C 5,3 km/h (1 Bft)
19.12.2017 23:00 23,2 C -0,2 C 62 % 96 % 1034,0 hPa 0,0 l/m 0,7 km/h (0 Bft) S 0,00 h 0,0 UV-I 0 W/m -0,7 C -0,2 C 2,0 km/h (1 Bft)
20.12.2017 00:00 23,1 C -0,1 C 62 % 96 % 1034,0 hPa 0,0 l/m 0,6 km/h (0 Bft) SO 0,00 h 0,0 UV-I 0 W/m -0,7 C -0,1 C 1,1 km/h (1 Bft)
20.12.2017 01:00 22,8 C -0,1 C 61 % 96 % 1033,8 hPa 0,0 l/m 0,2 km/h (0 Bft) SO 0,00 h 0,0 UV-I 0 W/m -0,7 C -0,1 C 0,5 km/h (0 Bft)
20.12.2017 02:00 22,7 C -0,1 C 62 % 96 % 1033,9 hPa 0,0 l/m 0,0 km/h (0 Bft) N 0,00 h 0,0 UV-I 0 W/m -0,7 C -0,1 C 0,0 km/h (0 Bft)
20.12.2017 03:00 22,7 C 0,0 C 62 % 96 % 1033,8 hPa 0,0 l/m 0,0 km/h (0 Bft) N 0,00 h 0,0 UV-I 0 W/m -0,6 C 0,0 C 0,0 km/h (0 Bft)
20.12.2017 04:00 22,6 C 0,1 C 63 % 96 % 1033,7 hPa 0,0 l/m 0,0 km/h (0 Bft) N 0,00 h 0,0 UV-I 0 W/m -0,5 C 0,1 C 0,0 km/h (0 Bft)
20.12.2017 05:00 22,6 C 0,1 C 63 % 96 % 1033,7 hPa 0,0 l/m 0,0 km/h (0 Bft) N 0,00 h 0,0 UV-I 0 W/m -0,5 C 0,1 C 0,0 km/h (0 Bft)
20.12.2017 06:00 22,6 C 0,1 C 63 % 96 % 1033,7 hPa 0,0 l/m 0,0 km/h (0 Bft) S-SO 0,00 h 0,0 UV-I 0 W/m -0,4 C 0,1 C 0,1 km/h (0 Bft)
20.12.2017 07:00 22,6 C 0,2 C 63 % 97 % 1034,1 hPa 0,0 l/m 0,0 km/h (0 Bft) N 0,00 h 0,0 UV-I 0 W/m -0,3 C 0,2 C 0,0 km/h (0 Bft)
20.12.2017 08:00 22,8 C 0,3 C 62 % 97 % 1034,4 hPa 0,0 l/m 0,0 km/h (0 Bft) S-SW 0,00 h 0,0 UV-I 7 W/m -0,1 C 0,3 C 0,1 km/h (0 Bft)
20.12.2017 09:00 22,9 C 0,4 C 63 % 97 % 1034,8 hPa 0,0 l/m 0,1 km/h (0 Bft) S 0,00 h 0,0 UV-I 17 W/m -0,0 C 0,4 C 0,1 km/h (0 Bft)
20.12.2017 10:00 23,1 C 0,7 C 62 % 97 % 1035,1 hPa 0,0 l/m 1,2 km/h (1 Bft) S 0,00 h 0,5 UV-I 46 W/m 0,2 C 0,7 C 2,2 km/h (1 Bft)
20.12.2017 11:00 23,2 C 0,8 C 61 % 97 % 1034,9 hPa 0,2 l/m 2,4 km/h (1 Bft) S 0,00 h 0,5 UV-I 58 W/m 0,4 C 0,8 C 4,5 km/h (1 Bft)
20.12.2017 12:00 16,6 C 1,0 C 49 % 97 % 1034,8 hPa 0,0 l/m 2,0 km/h (1 Bft) S 0,00 h 0,5 UV-I 65 W/m 0,5 C 1,0 C 3,9 km/h (1 Bft)
20.12.2017 13:00 13,2 C 1,1 C 54 % 96 % 1034,5 hPa 0,0 l/m 1,7 km/h (1 Bft) S 0,02 h 0,5 UV-I 80 W/m 0,6 C 1,1 C 3,6 km/h (1 Bft)
20.12.2017 14:00 17,3 C 1,1 C 62 % 96 % 1034,3 hPa 0,0 l/m 1,4 km/h (1 Bft) S 0,00 h 0,0 UV-I 39 W/m 0,5 C 1,1 C 3,4 km/h (1 Bft)
20.12.2017 15:00 20,8 C 0,9 C 57 % 96 % 1034,4 hPa 0,0 l/m 2,1 km/h (1 Bft) S 0,00 h 0,0 UV-I 13 W/m 0,4 C 0,9 C 4,0 km/h (1 Bft)
20.12.2017 16:00 21,7 C 0,8 C 57 % 96 % 1034,4 hPa 0,0 l/m 1,5 km/h (1 Bft) S 0,00 h 0,0 UV-I 0 W/m 0,3 C 0,8 C 3,3 km/h (1 Bft)
20.12.2017 17:00 22,1 C 0,8 C 56 % 96 % 1034,7 hPa 0,0 l/m 1,2 km/h (1 Bft) SW 0,00 h 0,0 UV-I 0 W/m 0,2 C 0,8 C 2,7 km/h (1 Bft)
20.12.2017 18:00 22,4 C 0,7 C 56 % 96 % 1035,0 hPa 0,0 l/m 0,9 km/h (0 Bft) SW 0,00 h 0,0 UV-I 0 W/m 0,2 C 0,7 C 2,2 km/h (1 Bft)
20.12.2017 19:00 22,6 C 0,8 C 56 % 97 % 1035,0 hPa 0,0 l/m 1,8 km/h (1 Bft) W-SW 0,00 h 0,0 UV-I 0 W/m 0,4 C 0,8 C 3,8 km/h (1 Bft)
20.12.2017 20:00 22,7 C 0,8 C 57 % 97 % 1035,0 hPa 0,0 l/m 1,7 km/h (1 Bft) SW 0,00 h 0,0 UV-I 0 W/m 0,4 C 0,8 C 3,8 km/h (1 Bft)
20.12.2017 21:00 22,8 C 0,9 C 57 % 97 % 1035,0 hPa 0,0 l/m 1,0 km/h (0 Bft) SW 0,00 h 0,0 UV-I 0 W/m 0,5 C 0,9 C 2,5 km/h (1 Bft)
20.12.2017 22:00 22,9 C 0,9 C 58 % 97 % 1034,9 hPa 0,0 l/m 1,4 km/h (1 Bft) SW 0,00 h 0,0 UV-I 0 W/m 0,5 C 0,9 C 3,0 km/h (1 Bft)
20.12.2017 23:00 23,0 C 0,9 C 59 % 97 % 1034,7 hPa 0,0 l/m 2,0 km/h (1 Bft) SW 0,00 h 0,0 UV-I 0 W/m 0,5 C 0,9 C 4,6 km/h (1 Bft)
21.12.2017 00:00 22,9 C 0,9 C 59 % 97 % 1034,7 hPa 0,0 l/m 2,7 km/h (1 Bft) S-SW 0,00 h 0,0 UV-I 0 W/m 0,5 C 0,9 C 5,9 km/h (2 Bft)
21.12.2017 01:00 22,7 C 0,9 C 59 % 97 % 1034,6 hPa 0,0 l/m 3,6 km/h (1 Bft) S-SW 0,00 h 0,0 UV-I 0 W/m 0,4 C 0,9 C 7,2 km/h (2 Bft)
21.12.2017 02:00 22,5 C 0,8 C 60 % 97 % 1034,5 hPa 0,0 l/m 3,7 km/h (1 Bft) S 0,00 h 0,0 UV-I 0 W/m 0,4 C 0,8 C 7,1 km/h (2 Bft)
21.12.2017 03:00 22,4 C 0,8 C 61 % 98 % 1034,4 hPa 0,0 l/m 3,1 km/h (1 Bft) S-SW 0,00 h 0,0 UV-I 0 W/m 0,5 C 0,8 C 6,2 km/h (2 Bft)
21.12.2017 04:00 22,4 C 0,9 C 61 % 97 % 1034,1 hPa 0,0 l/m 2,7 km/h (1 Bft) S-SW 0,00 h 0,0 UV-I 0 W/m 0,5 C 0,9 C 5,2 km/h (1 Bft)
21.12.2017 05:00 22,3 C 0,9 C 61 % 98 % 1034,0 hPa 0,0 l/m 2,7 km/h (1 Bft) S 0,00 h 0,0 UV-I 0 W/m 0,6 C 0,9 C 4,9 km/h (1 Bft)
21.12.2017 06:00 22,4 C 1,0 C 60 % 98 % 1033,6 hPa 0,0 l/m 4,2 km/h (1 Bft) S 0,00 h 0,0 UV-I 0 W/m 0,7 C 1,0 C 6,9 km/h (2 Bft)
21.12.2017 07:00 22,6 C 1,2 C 60 % 98 % 1033,5 hPa 0,0 l/m 2,3 km/h (1 Bft) S 0,00 h 0,0 UV-I 0 W/m 0,9 C 1,2 C 5,4 km/h (1 Bft)
21.12.2017 08:00 22,7 C 1,3 C 60 % 98 % 1033,6 hPa 0,0 l/m 3,1 km/h (1 Bft) S 0,00 h 0,0 UV-I 9 W/m 1,0 C 1,3 C 6,0 km/h (2 Bft)
21.12.2017 09:00 22,8 C 1,5 C 60 % 98 % 1033,6 hPa 0,0 l/m 2,6 km/h (1 Bft) S-SW 0,00 h 0,0 UV-I 19 W/m 1,3 C 1,5 C 6,1 km/h (2 Bft)
21.12.2017 10:00 22,8 C 1,8 C 60 % 98 % 1033,8 hPa 0,2 l/m 2,9 km/h (1 Bft) S 0,00 h 0,0 UV-I 21 W/m 1,5 C 1,8 C 5,5 km/h (1 Bft)
21.12.2017 11:00 22,7 C 1,9 C 60 % 98 % 1033,4 hPa 0,0 l/m 3,1 km/h (1 Bft) S 0,00 h 0,0 UV-I 25 W/m 1,6 C 1,9 C 5,6 km/h (1 Bft)
21.12.2017 12:00 22,7 C 2,3 C 59 % 98 % 1032,9 hPa 0,2 l/m 2,4 km/h (1 Bft) S-SW 0,00 h 0,0 UV-I 23 W/m 2,0 C 2,3 C 5,4 km/h (1 Bft)
21.12.2017 13:00 22,7 C 2,5 C 59 % 98 % 1032,4 hPa 0,0 l/m 2,2 km/h (1 Bft) SW 0,00 h 0,0 UV-I 18 W/m 2,2 C 2,5 C 5,5 km/h (1 Bft)
21.12.2017 14:00 22,7 C 2,8 C 60 % 98 % 1031,9 hPa 0,4 l/m 2,6 km/h (1 Bft) S-SW 0,00 h 0,0 UV-I 20 W/m 2,5 C 2,8 C 5,7 km/h (1 Bft)
21.12.2017 15:00 22,8 C 3,0 C 61 % 98 % 1031,9 hPa 1,4 l/m 1,2 km/h (1 Bft) S-SW 0,00 h 0,0 UV-I 9 W/m 2,7 C 3,0 C 3,4 km/h (1 Bft)
21.12.2017 16:00 22,9 C 3,1 C 61 % 98 % 1032,0 hPa 0,8 l/m 0,1 km/h (0 Bft) S-SW 0,00 h 0,0 UV-I 0 W/m 2,8 C 3,1 C 0,2 km/h (0 Bft)
21.12.2017 17:00 22,9 C 3,1 C 60 % 98 % 1032,4 hPa 0,4 l/m 0,0 km/h (0 Bft) N 0,00 h 0,0 UV-I 0 W/m 2,8 C 3,1 C 0,1 km/h (0 Bft)
21.12.2017 18:00 22,9 C 3,1 C 60 % 98 % 1032,9 hPa 0,0 l/m 0,0 km/h (0 Bft) N 0,00 h 0,0 UV-I 0 W/m 2,9 C 3,1 C 0,0 km/h (0 Bft)
21.12.2017 19:00 23,0 C 3,1 C 61 % 98 % 1033,2 hPa 0,2 l/m 0,0 km/h (0 Bft) N 0,00 h 0,0 UV-I 0 W/m 2,9 C 3,1 C 0,0 km/h (0 Bft)
21.12.2017 20:00 23,1 C 3,2 C 61 % 98 % 1033,8 hPa 0,0 l/m 0,0 km/h (0 Bft) N 0,00 h 0,0 UV-I 0 W/m 2,9 C 3,2 C 0,0 km/h (0 Bft)
21.12.2017 21:00 23,2 C 3,2 C 61 % 98 % 1033,7 hPa 0,0 l/m 0,0 km/h (0 Bft) N 0,00 h 0,0 UV-I 0 W/m 2,9 C 3,2 C 0,0 km/h (0 Bft)
21.12.2017 22:00 23,2 C 3,2 C 61 % 98 % 1034,1 hPa 0,0 l/m 0,0 km/h (0 Bft) N 0,00 h 0,0 UV-I 0 W/m 2,9 C 3,2 C 0,1 km/h (0 Bft)
21.12.2017 23:00 23,2 C 3,3 C 62 % 98 % 1034,1 hPa 0,0 l/m 0,0 km/h (0 Bft) N 0,00 h 0,0 UV-I 0 W/m 3,0 C 3,3 C 0,0 km/h (0 Bft)
22.12.2017 00:00 23,1 C 3,3 C 62 % 98 % 1034,1 hPa 0,0 l/m 0,4 km/h (0 Bft) W 0,00 h 0,0 UV-I 0 W/m 3,0 C 3,3 C 2,1 km/h (1 Bft)
22.12.2017 01:00 22,9 C 3,2 C 62 % 98 % 1034,1 hPa 0,0 l/m 0,2 km/h (0 Bft) W-NW 0,00 h 0,0 UV-I 0 W/m 2,9 C 3,2 C 1,9 km/h (1 Bft)
22.12.2017 02:00 22,8 C 2,8 C 63 % 98 % 1034,1 hPa 0,0 l/m 0,1 km/h (0 Bft) W-NW 0,00 h 0,0 UV-I 0 W/m 2,5 C 2,8 C 0,2 km/h (0 Bft)
22.12.2017 03:00 22,7 C 2,6 C 63 % 98 % 1034,1 hPa 0,0 l/m 0,0 km/h (0 Bft) N 0,00 h 0,0 UV-I 0 W/m 2,3 C 2,6 C 0,0 km/h (0 Bft)
22.12.2017 04:00 22,6 C 2,3 C 63 % 98 % 1033,7 hPa 0,0 l/m 0,0 km/h (0 Bft) N 0,00 h 0,0 UV-I 0 W/m 2,0 C 2,3 C 0,0 km/h (0 Bft)
22.12.2017 05:00 22,6 C 2,4 C 63 % 98 % 1033,2 hPa 0,0 l/m 0,0 km/h (0 Bft) N 0,00 h 0,0 UV-I 0 W/m 2,1 C 2,4 C 0,0 km/h (0 Bft)
22.12.2017 06:00 22,5 C 2,8 C 63 % 98 % 1033,1 hPa 0,0 l/m 0,0 km/h (0 Bft) N 0,00 h 0,0 UV-I 0 W/m 2,6 C 2,8 C 0,0 km/h (0 Bft)
22.12.2017 07:00 22,7 C 3,3 C 63 % 98 % 1033,1 hPa 0,0 l/m 0,0 km/h (0 Bft) N 0,00 h 0,0 UV-I 0 W/m 3,1 C 3,3 C 0,0 km/h (0 Bft)
22.12.2017 08:00 22,9 C 3,4 C 63 % 98 % 1033,2 hPa 0,0 l/m 0,0 km/h (0 Bft) N 0,00 h 0,0 UV-I 9 W/m 3,1 C 3,4 C 0,0 km/h (0 Bft)
22.12.2017 09:00 23,0 C 3,7 C 62 % 98 % 1033,4 hPa 0,0 l/m 0,0 km/h (0 Bft) N 0,00 h 0,0 UV-I 28 W/m 3,4 C 3,7 C 0,0 km/h (0 Bft)
22.12.2017 10:00 23,2 C 4,2 C 62 % 98 % 1033,4 hPa 0,0 l/m 0,0 km/h (0 Bft) N 0,00 h 0,5 UV-I 63 W/m 3,9 C 4,2 C 0,0 km/h (0 Bft)
22.12.2017 11:00 23,4 C 5,0 C 62 % 98 % 1032,9 hPa 0,0 l/m 0,0 km/h (0 Bft) N 0,00 h 0,5 UV-I 64 W/m 4,7 C 5,0 C 0,0 km/h (0 Bft)
22.12.2017 12:00 23,3 C 5,1 C 62 % 98 % 1032,5 hPa 0,0 l/m 0,0 km/h (0 Bft) N 0,00 h 0,0 UV-I 43 W/m 4,8 C 5,1 C 0,0 km/h (0 Bft)
22.12.2017 13:00 23,5 C 5,0 C 61 % 98 % 1032,0 hPa 0,0 l/m 0,0 km/h (0 Bft) N 0,00 h 0,0 UV-I 28 W/m 4,8 C 5,0 C 0,0 km/h (0 Bft)
22.12.2017 14:00 23,7 C 5,2 C 59 % 98 % 1032,0 hPa 0,0 l/m 0,0 km/h (0 Bft) N 0,05 h 0,0 UV-I 81 W/m 5,0 C 5,2 C 0,0 km/h (0 Bft)
22.12.2017 15:00 23,6 C 5,0 C 54 % 98 % 1032,1 hPa 0,0 l/m 0,0 km/h (0 Bft) N 0,00 h 0,0 UV-I 27 W/m 4,7 C 5,0 C 0,0 km/h (0 Bft)
22.12.2017 16:00 23,3 C 4,2 C 56 % 98 % 1032,3 hPa 0,0 l/m 0,0 km/h (0 Bft) N 0,00 h 0,0 UV-I 6 W/m 3,9 C 4,2 C 0,0 km/h (0 Bft)
22.12.2017 17:00 23,2 C 3,2 C 57 % 97 % 1032,6 hPa 0,2 l/m 0,0 km/h (0 Bft) N 0,00 h 0,0 UV-I 0 W/m 2,7 C 3,2 C 0,0 km/h (0 Bft)
22.12.2017 18:00 23,2 C 2,1 C 59 % 97 % 1033,1 hPa 0,0 l/m 0,0 km/h (0 Bft) N 0,00 h 0,0 UV-I 0 W/m 1,7 C 2,1 C 0,0 km/h (0 Bft)
22.12.2017 19:00 23,2 C 1,6 C 60 % 97 % 1033,7 hPa 0,0 l/m 0,0 km/h (0 Bft) W-NW 0,00 h 0,0 UV-I 0 W/m 1,2 C 1,6 C 0,1 km/h (0 Bft)
22.12.2017 20:00 23,2 C 1,3 C 60 % 97 % 1034,1 hPa 0,0 l/m 0,0 km/h (0 Bft) NW 0,00 h 0,0 UV-I 0 W/m 0,9 C 1,3 C 0,5 km/h (0 Bft)
22.12.2017 21:00 23,3 C 0,9 C 61 % 97 % 1034,4 hPa 0,0 l/m 0,0 km/h (0 Bft) W 0,00 h 0,0 UV-I 0 W/m 0,5 C 0,9 C 0,2 km/h (0 Bft)
22.12.2017 22:00 23,3 C 2,0 C 61 % 98 % 1034,5 hPa 0,0 l/m 1,7 km/h (1 Bft) W 0,00 h 0,0 UV-I 0 W/m 1,7 C 2,0 C 5,3 km/h (1 Bft)
22.12.2017 23:00 23,3 C 2,6 C 61 % 97 % 1034,7 hPa 0,0 l/m 3,0 km/h (1 Bft) W-NW 0,00 h 0,0 UV-I 0 W/m 2,2 C 2,5 C 6,9 km/h (2 Bft)
23.12.2017 00:00 23,2 C 2,4 C 61 % 97 % 1034,6 hPa 0,0 l/m 1,7 km/h (1 Bft) W 0,00 h 0,0 UV-I 0 W/m 2,0 C 2,4 C 4,5 km/h (1 Bft)
23.12.2017 01:00 23,0 C 2,5 C 62 % 97 % 1034,5 hPa 0,0 l/m 0,0 km/h (0 Bft) N 0,00 h 0,0 UV-I 0 W/m 2,0 C 2,5 C 0,0 km/h (0 Bft)
23.12.2017 02:00 22,9 C 2,4 C 63 % 97 % 1034,3 hPa 0,0 l/m 0,0 km/h (0 Bft) N 0,00 h 0,0 UV-I 0 W/m 2,0 C 2,4 C 0,0 km/h (0 Bft)
23.12.2017 03:00 22,8 C 2,3 C 63 % 97 % 1033,5 hPa 0,0 l/m 0,0 km/h (0 Bft) N 0,00 h 0,0 UV-I 0 W/m 1,9 C 2,3 C 0,0 km/h (0 Bft)
23.12.2017 04:00 22,8 C 2,4 C 63 % 97 % 1032,8 hPa 0,0 l/m 0,0 km/h (0 Bft) N 0,00 h 0,0 UV-I 0 W/m 2,0 C 2,4 C 0,0 km/h (0 Bft)
23.12.2017 05:00 22,7 C 2,5 C 64 % 97 % 1032,6 hPa 0,0 l/m 0,0 km/h (0 Bft) N 0,00 h 0,0 UV-I 0 W/m 2,1 C 2,5 C 0,0 km/h (0 Bft)
23.12.2017 06:00 22,8 C 2,1 C 63 % 97 % 1032,6 hPa 0,0 l/m 0,0 km/h (0 Bft) N 0,00 h 0,0 UV-I 0 W/m 1,7 C 2,1 C 0,0 km/h (0 Bft)
23.12.2017 07:00 22,9 C 1,8 C 63 % 97 % 1032,4 hPa 0,0 l/m 0,0 km/h (0 Bft) N 0,00 h 0,0 UV-I 0 W/m 1,4 C 1,8 C 0,0 km/h (0 Bft)
23.12.2017 08:00 23,1 C 2,6 C 63 % 97 % 1032,3 hPa 0,0 l/m 0,3 km/h (0 Bft) W 0,00 h 0,0 UV-I 7 W/m 2,1 C 2,6 C 0,9 km/h (0 Bft)
23.12.2017 09:00 23,1 C 3,3 C 63 % 97 % 1032,5 hPa 0,0 l/m 0,0 km/h (0 Bft) W 0,03 h 0,5 UV-I 43 W/m 2,9 C 3,3 C 0,1 km/h (0 Bft)
23.12.2017 10:00 23,7 C 4,6 C 62 % 95 % 1031,8 hPa 0,0 l/m 1,9 km/h (1 Bft) W-SW 0,03 h 0,5 UV-I 120 W/m 3,9 C 4,2 C 4,7 km/h (1 Bft)
23.12.2017 11:00 23,8 C 5,3 C 62 % 94 % 1031,5 hPa 0,0 l/m 7,0 km/h (2 Bft) W-SW 0,00 h 0,5 UV-I 73 W/m 4,4 C 4,2 C 13,2 km/h (3 Bft)
23.12.2017 12:00 23,6 C 5,7 C 62 % 93 % 1030,9 hPa 0,0 l/m 4,0 km/h (1 Bft) W-SW 0,00 h 0,0 UV-I 45 W/m 4,7 C 5,4 C 8,0 km/h (2 Bft)
23.12.2017 13:00 23,5 C 6,1 C 61 % 92 % 1030,4 hPa 0,0 l/m 7,8 km/h (2 Bft) W-SW 0,00 h 0,0 UV-I 34 W/m 4,9 C 4,4 C 15,3 km/h (3 Bft)
23.12.2017 14:00 23,7 C 6,2 C 59 % 91 % 1030,2 hPa 0,0 l/m 10,4 km/h (2 Bft) W-SW 0,00 h 0,0 UV-I 23 W/m 4,9 C 3,3 C 17,9 km/h (3 Bft)
23.12.2017 15:00 23,5 C 6,3 C 58 % 91 % 1030,2 hPa 0,0 l/m 10,5 km/h (2 Bft) W-SW 0,00 h 0,0 UV-I 15 W/m 5,0 C 3,2 C 17,4 km/h (3 Bft)
23.12.2017 16:00 23,4 C 6,2 C 58 % 92 % 1030,2 hPa 0,0 l/m 11,8 km/h (2 Bft) W-SW 0,00 h 0,0 UV-I 4 W/m 5,0 C 2,4 C 19,5 km/h (3 Bft)
23.12.2017 17:00 23,5 C 6,2 C 59 % 92 % 1030,3 hPa 0,0 l/m 11,5 km/h (2 Bft) W-SW 0,00 h 0,0 UV-I 0 W/m 5,0 C 2,7 C 19,7 km/h (3 Bft)
23.12.2017 18:00 23,6 C 6,2 C 60 % 93 % 1030,3 hPa 0,0 l/m 9,9 km/h (2 Bft) SW 0,00 h 0,0 UV-I 0 W/m 5,1 C 3,4 C 16,9 km/h (3 Bft)
23.12.2017 19:00 23,6 C 6,0 C 61 % 93 % 1030,4 hPa 0,0 l/m 8,0 km/h (2 Bft) W-SW 0,00 h 0,0 UV-I 0 W/m 4,9 C 4,3 C 14,3 km/h (3 Bft)
23.12.2017 20:00 23,5 C 5,8 C 60 % 93 % 1030,2 hPa 0,0 l/m 9,4 km/h (2 Bft) SW 0,00 h 0,0 UV-I 0 W/m 4,8 C 3,3 C 16,4 km/h (3 Bft)
23.12.2017 21:00 23,6 C 5,8 C 61 % 93 % 1030,3 hPa 0,0 l/m 9,1 km/h (2 Bft) SW 0,00 h 0,0 UV-I 0 W/m 4,8 C 3,6 C 16,7 km/h (3 Bft)
23.12.2017 22:00 23,6 C 5,7 C 63 % 93 % 1030,1 hPa 0,0 l/m 10,4 km/h (2 Bft) W-SW 0,00 h 0,0 UV-I 0 W/m 4,7 C 2,7 C 18,0 km/h (3 Bft)
23.12.2017 23:00 23,6 C 5,6 C 63 % 94 % 1029,8 hPa 0,0 l/m 11,4 km/h (2 Bft) W-SW 0,00 h 0,0 UV-I 0 W/m 4,8 C 2,0 C 19,4 km/h (3 Bft)
24.12.2017 00:00 23,4 C 5,6 C 64 % 94 % 1029,3 hPa 0,0 l/m 10,0 km/h (2 Bft) W-SW 0,00 h 0,0 UV-I 0 W/m 4,8 C 2,9 C 18,1 km/h (3 Bft)
24.12.2017 01:00 23,1 C 5,6 C 64 % 94 % 1028,9 hPa 0,0 l/m 12,2 km/h (2 Bft) W-SW 0,00 h 0,0 UV-I 0 W/m 4,7 C 1,6 C 20,7 km/h (4 Bft)
24.12.2017 02:00 22,9 C 5,6 C 64 % 94 % 1028,6 hPa 0,0 l/m 13,5 km/h (3 Bft) W-SW 0,00 h 0,0 UV-I 0 W/m 4,7 C 0,8 C 21,8 km/h (4 Bft)
24.12.2017 03:00 22,9 C 5,5 C 64 % 95 % 1028,4 hPa 0,0 l/m 12,9 km/h (3 Bft) W-SW 0,00 h 0,0 UV-I 0 W/m 4,7 C 0,9 C 21,3 km/h (4 Bft)
24.12.2017 04:00 22,9 C 5,3 C 64 % 95 % 1028,1 hPa 0,0 l/m 12,8 km/h (3 Bft) W-SW 0,00 h 0,0 UV-I 0 W/m 4,6 C 0,8 C 21,1 km/h (4 Bft)
24.12.2017 05:00 22,9 C 5,2 C 65 % 95 % 1027,9 hPa 0,0 l/m 9,7 km/h (2 Bft) W-SW 0,00 h 0,0 UV-I 0 W/m 4,5 C 2,5 C 17,7 km/h (3 Bft)
24.12.2017 06:00 23,2 C 5,3 C 64 % 95 % 1027,5 hPa 0,0 l/m 11,3 km/h (2 Bft) W-SW 0,00 h 0,0 UV-I 0 W/m 4,6 C 1,7 C 19,4 km/h (3 Bft)
24.12.2017 07:00 23,4 C 5,2 C 63 % 95 % 1027,3 hPa 0,0 l/m 13,6 km/h (3 Bft) W-SW 0,00 h 0,0 UV-I 0 W/m 4,5 C 0,2 C 21,9 km/h (4 Bft)
24.12.2017 08:00 23,7 C 5,1 C 63 % 95 % 1027,4 hPa 0,0 l/m 7,3 km/h (2 Bft) W-SW 0,00 h 0,0 UV-I 0 W/m 4,4 C 3,8 C 13,6 km/h (3 Bft)
24.12.2017 09:00 23,6 C 5,0 C 63 % 96 % 1027,5 hPa 0,0 l/m 7,4 km/h (2 Bft) SW 0,00 h 0,0 UV-I 8 W/m 4,4 C 3,5 C 13,5 km/h (3 Bft)
24.12.2017 10:00 23,4 C 4,9 C 62 % 96 % 1027,6 hPa 0,0 l/m 6,1 km/h (2 Bft) SW 0,00 h 0,0 UV-I 12 W/m 4,3 C 4,0 C 11,4 km/h (2 Bft)
24.12.2017 11:00 23,5 C 4,8 C 63 % 96 % 1027,1 hPa 0,0 l/m 7,0 km/h (2 Bft) SW 0,00 h 0,0 UV-I 17 W/m 4,2 C 3,4 C 13,2 km/h (3 Bft)
24.12.2017 12:00 23,5 C 4,9 C 63 % 95 % 1026,3 hPa 0,0 l/m 9,7 km/h (2 Bft) SW 0,00 h 0,0 UV-I 28 W/m 4,2 C 2,2 C 16,6 km/h (3 Bft)
24.12.2017 13:00 23,4 C 4,8 C 62 % 95 % 1025,8 hPa 0,0 l/m 9,3 km/h (2 Bft) SW 0,00 h 0,0 UV-I 18 W/m 4,0 C 2,4 C 15,9 km/h (3 Bft)
24.12.2017 14:00 23,1 C 4,6 C 59 % 96 % 1025,4 hPa 0,2 l/m 7,8 km/h (2 Bft) SW 0,00 h 0,0 UV-I 15 W/m 4,0 C 3,2 C 13,5 km/h (3 Bft)
24.12.2017 15:00 22,9 C 4,4 C 61 % 96 % 1025,3 hPa 0,0 l/m 6,5 km/h (2 Bft) SW 0,00 h 0,0 UV-I 7 W/m 3,8 C 3,3 C 12,2 km/h (2 Bft)
24.12.2017 16:00 23,4 C 4,2 C 62 % 96 % 1025,2 hPa 0,0 l/m 8,2 km/h (2 Bft) SW 0,00 h 0,0 UV-I 0 W/m 3,7 C 2,5 C 14,3 km/h (3 Bft)
24.12.2017 17:00 23,4 C 4,1 C 60 % 97 % 1025,0 hPa 0,0 l/m 10,0 km/h (2 Bft) W-SW 0,00 h 0,0 UV-I 0 W/m 3,6 C 1,1 C 16,8 km/h (3 Bft)
24.12.2017 18:00 23,2 C 3,9 C 59 % 96 % 1025,2 hPa 0,0 l/m 11,8 km/h (2 Bft) W-SW 0,00 h 0,0 UV-I 0 W/m 3,3 C -0,1 C 19,4 km/h (3 Bft)
24.12.2017 19:00 22,9 C 4,0 C 59 % 95 % 1025,1 hPa 0,0 l/m 10,5 km/h (2 Bft) W-SW 0,00 h 0,0 UV-I 0 W/m 3,3 C 0,7 C 17,5 km/h (3 Bft)
24.12.2017 20:00 22,9 C 4,1 C 59 % 95 % 1025,1 hPa 0,0 l/m 8,9 km/h (2 Bft) W-SW 0,00 h 0,0 UV-I 0 W/m 3,3 C 1,7 C 15,6 km/h (3 Bft)
24.12.2017 21:00 22,8 C 4,0 C 59 % 95 % 1025,0 hPa 0,0 l/m 8,3 km/h (2 Bft) SW 0,00 h 0,0 UV-I 0 W/m 3,3 C 2,1 C 14,7 km/h (3 Bft)
24.12.2017 22:00 22,8 C 4,1 C 60 % 95 % 1024,9 hPa 0,0 l/m 7,3 km/h (2 Bft) W-SW 0,00 h 0,0 UV-I 0 W/m 3,4 C 2,5 C 13,4 km/h (3 Bft)
24.12.2017 23:00 22,9 C 4,1 C 61 % 95 % 1024,7 hPa 0,0 l/m 8,9 km/h (2 Bft) W-SW 0,00 h 0,0 UV-I 0 W/m 3,3 C 1,8 C 15,9 km/h (3 Bft)
Min-Datum _ 20.12.17 19.12.17 20.12.17 18.12.17 18.12.17 - 18.12.17 - - - - 19.12.17 19.12.17 18.12.17
_ Min-Zeit 14:00 05:46 12:06 14:55 06:19 - 00:00 - - - - 05:46 05:46 00:00
Minimum _ 12,6 C -8,3 C 40 % 84 % 1023,1 hPa - 0,0 km/h (0 Bft) - - - - -9,2 C -8,3 C 0,0 km/h (0 Bft)
Max-Datum _ 22.12.17 23.12.17 20.12.17 22.12.17 20.12.17 21.12.17 24.12.17 - 18.12.17 18.12.17 18.12.17 22.12.17 23.12.17 24.12.17
_ Max-Zeit 14:38 14:41 14:06 10:45 10:42 15:00 00:31 - 14:39 11:05 14:40 14:36 14:48 01:48
Maximum _ 23,9 C 6,3 C 68 % 99 % 1035,2 hPa 1,4 l/m 24,1 km/h
W-SW (4 Bft)
- 0,02 h 0,7 UV-I 179 W/m 5,4 C 6,3 C 38,6 km/h
W-SW (5 Bft)
Durchschnitt _ 22,8 C 1,4 C 61 % 95 % 1031,2 hPa #5,0 l/m 2,9 km/h (1 Bft) W-SW #12 min. 0,5 UV-I 35 W/m 0,7 C 0,8 C 5,3 km/h (1 Bft)